BAW2158 TTPP-TLPL

Flight info

Callsign BAW2158
Flight time 0h 39m
Altitude 29000
Route POS UA324 BNE
Aircraft B772/H-SDE2E3FGHIJ5LORVWXY/LB1D1

Departure

Time 2026-05-03 21:09
Airport Piarco International Airport (TTPP)

Arrival

Time 2026-05-03 21:48
Airport Hewanorra International Airport (TLPL)
Time Latitude Longitude Altitude Speed Heading
2026-05-03 20:43 10.59944 -61.34094 54 ft 0 kts 65°
2026-05-03 20:58 10.59936 -61.34114 50 ft 4 kts 69°
2026-05-03 20:58 10.59925 -61.34138 46 ft 4 kts 62°
2026-05-03 20:58 10.59913 -61.34163 47 ft 4 kts 76°
2026-05-03 20:58 10.59907 -61.34175 48 ft 3 kts 169°
2026-05-03 20:59 10.59909 -61.34176 46 ft 0 kts 180°
2026-05-03 21:03 10.59876 -61.34176 50 ft 8 kts 179°
2026-05-03 21:03 10.59801 -61.34175 51 ft 12 kts 179°
2026-05-03 21:03 10.59722 -61.34186 48 ft 12 kts 216°
2026-05-03 21:03 10.59706 -61.34265 48 ft 12 kts 268°
2026-05-03 21:04 10.59706 -61.34348 48 ft 12 kts 271°
2026-05-03 21:04 10.59707 -61.34431 54 ft 12 kts 270°
2026-05-03 21:04 10.59691 -61.34511 48 ft 12 kts 229°
2026-05-03 21:04 10.59613 -61.34528 48 ft 12 kts 178°
2026-05-03 21:05 10.59531 -61.34525 47 ft 12 kts 178°
2026-05-03 21:05 10.59450 -61.34528 49 ft 12 kts 189°
2026-05-03 21:05 10.59412 -61.34596 50 ft 12 kts 268°
2026-05-03 21:05 10.59404 -61.34680 51 ft 12 kts 258°
2026-05-03 21:06 10.59382 -61.34762 50 ft 12 kts 253°
2026-05-03 21:06 10.59359 -61.34843 48 ft 12 kts 254°
2026-05-03 21:06 10.59351 -61.34927 50 ft 12 kts 270°
2026-05-03 21:06 10.59352 -61.35012 50 ft 12 kts 270°
2026-05-03 21:07 10.59351 -61.35096 50 ft 12 kts 270°
2026-05-03 21:07 10.59367 -61.35177 50 ft 12 kts 309°
2026-05-03 21:07 10.59449 -61.35189 50 ft 12 kts 14°
2026-05-03 21:07 10.59521 -61.35147 51 ft 12 kts 56°
2026-05-03 21:08 10.59532 -61.35100 48 ft 5 kts 85°
2026-05-03 21:08 10.59533 -61.35080 48 ft 7 kts 87°
2026-05-03 21:08 10.59535 -61.34793 50 ft 86 kts 90°
2026-05-03 21:08 10.59540 -61.33881 98 ft 164 kts 89°
2026-05-03 21:09 10.59565 -61.32680 962 ft 176 kts 88°
2026-05-03 21:09 10.59565 -61.31533 2364 ft 157 kts 89°
2026-05-03 21:09 10.59550 -61.30392 3111 ft 176 kts 90°
2026-05-03 21:09 10.59551 -61.29015 3457 ft 211 kts 89°
2026-05-03 21:10 10.59555 -61.27468 4089 ft 224 kts 89°
2026-05-03 21:10 10.59724 -61.25856 4524 ft 245 kts 71°
2026-05-03 21:10 10.60849 -61.24443 5005 ft 270 kts 33°
2026-05-03 21:10 10.62661 -61.23876 5814 ft 280 kts
2026-05-03 21:11 10.64655 -61.23765 6522 ft 291 kts
2026-05-03 21:11 10.66691 -61.23742 7400 ft 292 kts
2026-05-03 21:11 10.68713 -61.23741 8284 ft 294 kts
2026-05-03 21:11 10.70770 -61.23746 9223 ft 294 kts
2026-05-03 21:12 10.72821 -61.23749 10059 ft 296 kts
2026-05-03 21:12 10.74936 -61.23745 10469 ft 315 kts
2026-05-03 21:12 10.77217 -61.23734 10729 ft 336 kts
2026-05-03 21:12 10.79569 -61.23721 11378 ft 345 kts
2026-05-03 21:13 10.82002 -61.23708 12231 ft 352 kts
2026-05-03 21:13 10.84466 -61.23694 13259 ft 354 kts
2026-05-03 21:13 10.86955 -61.23679 14197 ft 359 kts
2026-05-03 21:13 10.89440 -61.23661 15060 ft 364 kts
2026-05-03 21:14 10.91996 -61.23642 15943 ft 369 kts
2026-05-03 21:14 10.94587 -61.23622 16822 ft 374 kts
2026-05-03 21:14 10.97215 -61.23602 17716 ft 378 kts
2026-05-03 21:14 10.99836 -61.23581 18534 ft 383 kts
2026-05-03 21:15 11.02515 -61.23560 19286 ft 387 kts
2026-05-03 21:15 11.05223 -61.23538 20034 ft 392 kts
2026-05-03 21:15 11.07972 -61.23516 20754 ft 396 kts
2026-05-03 21:15 11.10751 -61.23493 21454 ft 401 kts
2026-05-03 21:16 11.13565 -61.23471 22144 ft 406 kts
2026-05-03 21:16 11.16409 -61.23450 22835 ft 410 kts
2026-05-03 21:16 11.19280 -61.23428 23506 ft 415 kts
2026-05-03 21:16 11.22149 -61.23406 24085 ft 418 kts 360°
2026-05-03 21:17 11.25070 -61.23385 24714 ft 420 kts 359°
2026-05-03 21:17 11.27011 -61.23369 25129 ft 421 kts 358°
2026-05-03 21:17 11.30943 -61.23339 26018 ft 423 kts 359°
2026-05-03 21:17 11.33884 -61.23316 26820 ft 420 kts 358°
2026-05-03 21:18 11.36799 -61.23291 27707 ft 417 kts 358°
2026-05-03 21:18 11.39692 -61.23266 28543 ft 416 kts 357°
2026-05-03 21:18 11.42594 -61.23242 28986 ft 417 kts 357°
2026-05-03 21:18 11.45467 -61.23220 28972 ft 416 kts 357°
2026-05-03 21:19 11.50295 -61.23181 28979 ft 412 kts 357°
2026-05-03 21:19 11.56977 -61.23128 28991 ft 414 kts 357°
2026-05-03 21:20 11.62746 -61.23083 28988 ft 415 kts 358°
2026-05-03 21:20 11.68498 -61.23037 28982 ft 415 kts 358°
2026-05-03 21:21 11.74271 -61.22990 28984 ft 414 kts 358°
2026-05-03 21:21 11.79063 -61.22951 28986 ft 414 kts 358°
2026-05-03 21:22 11.84791 -61.22905 28986 ft 413 kts 358°
2026-05-03 21:22 11.90545 -61.22859 28989 ft 413 kts 358°
2026-05-03 21:23 11.96302 -61.22813 28985 ft 413 kts 358°
2026-05-03 21:23 12.02024 -61.22767 28989 ft 413 kts 358°
2026-05-03 21:24 12.07789 -61.22720 28989 ft 413 kts 358°
2026-05-03 21:24 12.13514 -61.22674 28880 ft 410 kts 358°
2026-05-03 21:25 12.16362 -61.22650 28513 ft 407 kts 358°
2026-05-03 21:25 12.19181 -61.22627 28085 ft 402 kts 358°
2026-05-03 21:25 12.21937 -61.22604 27624 ft 400 kts 359°
2026-05-03 21:25 12.24712 -61.22582 27155 ft 397 kts 359°
2026-05-03 21:26 12.27471 -61.22560 26694 ft 394 kts 359°
2026-05-03 21:26 12.30216 -61.22538 26235 ft 392 kts 358°
2026-05-03 21:26 12.32946 -61.22517 25784 ft 390 kts 359°
2026-05-03 21:26 12.35629 -61.22496 25338 ft 389 kts 360°
2026-05-03 21:27 12.38336 -61.22475 24885 ft 388 kts 360°
2026-05-03 21:27 12.41036 -61.22453 24441 ft 387 kts
2026-05-03 21:27 12.43736 -61.22431 23999 ft 386 kts
2026-05-03 21:27 12.46387 -61.22410 23563 ft 385 kts
2026-05-03 21:28 12.49072 -61.22388 23058 ft 384 kts
2026-05-03 21:28 12.51736 -61.22366 22602 ft 381 kts
2026-05-03 21:28 12.54377 -61.22345 22167 ft 379 kts
2026-05-03 21:28 12.57016 -61.22324 21741 ft 376 kts
2026-05-03 21:29 12.59590 -61.22303 21323 ft 373 kts
2026-05-03 21:29 12.62194 -61.22282 20894 ft 371 kts
2026-05-03 21:29 12.64770 -61.22261 20474 ft 369 kts
2026-05-03 21:29 12.67343 -61.22240 20055 ft 367 kts
2026-05-03 21:30 12.69861 -61.22220 19636 ft 365 kts
2026-05-03 21:30 12.72410 -61.22199 19209 ft 364 kts
2026-05-03 21:30 12.74943 -61.22178 18775 ft 363 kts
2026-05-03 21:30 12.77475 -61.22157 18329 ft 363 kts
2026-05-03 21:31 12.80003 -61.22136 17861 ft 362 kts
2026-05-03 21:31 12.82488 -61.22116 17411 ft 360 kts
2026-05-03 21:31 12.84987 -61.22096 16972 ft 357 kts
2026-05-03 21:31 12.87461 -61.22076 16540 ft 355 kts
2026-05-03 21:32 12.89928 -61.22057 16113 ft 353 kts
2026-05-03 21:32 12.92385 -61.22037 15691 ft 351 kts
2026-05-03 21:32 12.94821 -61.22017 15254 ft 350 kts
2026-05-03 21:32 12.97250 -61.21998 14829 ft 348 kts
2026-05-03 21:33 12.99672 -61.21978 14395 ft 347 kts
2026-05-03 21:33 13.02086 -61.21958 13960 ft 347 kts
2026-05-03 21:33 13.04484 -61.21991 13486 ft 342 kts 356°
2026-05-03 21:33 13.06785 -61.22592 13057 ft 342 kts 342°
2026-05-03 21:34 13.08980 -61.23518 12645 ft 340 kts 339°
2026-05-03 21:34 13.11103 -61.24492 12246 ft 337 kts 339°
2026-05-03 21:34 13.13273 -61.25350 11884 ft 332 kts 343°
2026-05-03 21:34 13.15464 -61.26078 11509 ft 328 kts 346°
2026-05-03 21:35 13.17643 -61.26748 11148 ft 325 kts 346°
2026-05-03 21:35 13.19804 -61.27393 10792 ft 322 kts 348°
2026-05-03 21:35 13.21979 -61.27881 10434 ft 318 kts 353°
2026-05-03 21:35 13.24143 -61.28230 10233 ft 309 kts 357°
2026-05-03 21:36 13.26249 -61.28457 10100 ft 299 kts 358°
2026-05-03 21:36 13.28297 -61.28663 9896 ft 293 kts 358°
2026-05-03 21:36 13.30345 -61.28866 9411 ft 298 kts 358°
2026-05-03 21:36 13.32418 -61.29064 8992 ft 299 kts 358°
2026-05-03 21:37 13.34487 -61.29167 8584 ft 297 kts
2026-05-03 21:37 13.36516 -61.28984 8218 ft 291 kts 13°
2026-05-03 21:37 13.38501 -61.28574 7870 ft 290 kts 15°
2026-05-03 21:37 13.40470 -61.28122 7508 ft 290 kts 15°
2026-05-03 21:38 13.42443 -61.27677 7162 ft 290 kts 15°
2026-05-03 21:38 13.44390 -61.27251 6845 ft 289 kts 14°
2026-05-03 21:38 13.46331 -61.26840 6540 ft 282 kts 14°
2026-05-03 21:38 13.48243 -61.26443 6336 ft 277 kts 14°
2026-05-03 21:39 13.50107 -61.26061 6213 ft 268 kts 14°
2026-05-03 21:39 13.51914 -61.25695 6180 ft 263 kts 15°
2026-05-03 21:39 13.53740 -61.25323 5894 ft 272 kts 15°
2026-05-03 21:39 13.55610 -61.24943 5454 ft 278 kts 15°
2026-05-03 21:40 13.57491 -61.24564 4899 ft 269 kts 15°
2026-05-03 21:40 13.59301 -61.24201 4541 ft 263 kts 14°
2026-05-03 21:40 13.61094 -61.23840 4235 ft 262 kts 15°
2026-05-03 21:40 13.62878 -61.23481 3966 ft 260 kts 15°
2026-05-03 21:41 13.64648 -61.23125 3681 ft 258 kts 15°
2026-05-03 21:41 13.66404 -61.22771 3429 ft 256 kts 14°
2026-05-03 21:41 13.68130 -61.22425 3307 ft 249 kts 15°
2026-05-03 21:41 13.69248 -61.22200 3211 ft 244 kts 15°
2026-05-03 21:42 13.71409 -61.21734 3069 ft 227 kts 24°
2026-05-03 21:42 13.72636 -61.20849 2964 ft 211 kts 58°
2026-05-03 21:42 13.73225 -61.19532 2866 ft 205 kts 77°
2026-05-03 21:42 13.73377 -61.18076 2765 ft 206 kts 89°
2026-05-03 21:43 13.73375 -61.16596 2651 ft 207 kts 91°
2026-05-03 21:43 13.73366 -61.15137 2537 ft 201 kts 91°
2026-05-03 21:43 13.73357 -61.13721 2414 ft 195 kts 90°
2026-05-03 21:43 13.73348 -61.12358 2340 ft 185 kts 90°
2026-05-03 21:44 13.73343 -61.11067 2217 ft 175 kts 91°
2026-05-03 21:44 13.73340 -61.09847 2108 ft 164 kts 89°
2026-05-03 21:44 13.73338 -61.08738 2005 ft 148 kts 89°
2026-05-03 21:44 13.73337 -61.07756 1948 ft 127 kts 91°
2026-05-03 21:45 13.73338 -61.06858 1890 ft 124 kts 91°
2026-05-03 21:45 13.73338 -61.05963 1767 ft 125 kts 90°
2026-05-03 21:45 13.73337 -61.05057 1612 ft 129 kts 88°
2026-05-03 21:45 13.73337 -61.04135 1469 ft 126 kts 87°
2026-05-03 21:46 13.73339 -61.03244 1303 ft 126 kts 88°
2026-05-03 21:46 13.73341 -61.02345 1143 ft 126 kts 91°
2026-05-03 21:46 13.73339 -61.01443 973 ft 126 kts 88°
2026-05-03 21:46 13.73320 -61.00576 818 ft 119 kts 89°
2026-05-03 21:47 13.73303 -60.99701 718 ft 121 kts 85°
2026-05-03 21:47 13.73338 -60.98824 542 ft 127 kts 87°
2026-05-03 21:47 13.73350 -60.97905 352 ft 127 kts 89°
2026-05-03 21:47 13.73346 -60.97014 167 ft 125 kts 89°
2026-05-03 21:48 13.73338 -60.96136 39 ft 119 kts 84°
2026-05-03 21:48 13.73341 -60.95426 34 ft 75 kts 90°
2026-05-03 21:48 13.73339 -60.95042 29 ft 43 kts 91°
2026-05-03 21:48 13.73341 -60.94761 31 ft 36 kts 89°
2026-05-03 21:49 13.73343 -60.94596 30 ft 8 kts 85°
2026-05-03 21:49 13.73372 -60.94553 30 ft 8 kts 22°
2026-05-03 21:49 13.73426 -60.94566 30 ft 8 kts 335°
2026-05-03 21:49 13.73479 -60.94599 32 ft 11 kts 323°
2026-05-03 21:50 13.73538 -60.94652 32 ft 11 kts 316°
2026-05-03 21:50 13.73568 -60.94724 32 ft 11 kts 272°
2026-05-03 21:50 13.73567 -60.94805 32 ft 11 kts 266°
2026-05-03 21:50 13.73606 -60.94858 32 ft 11 kts 350°
2026-05-03 21:51 13.73649 -60.94858 32 ft 0 kts